sat.trackr.live / text

‹ back to catalog

STARLINK-30252

NORAD 57607 · 2023-119F

PAYLOAD ACTIVE UNKNOWN

§ Identity

Operator
Country
US
Launch date
2023-08-11
Launch site
AFETR
Launch vehicle
Mass (kg)
RCS (m²)

Purposes: comms

External: N2YO · Heavens-Above · Gunter

§ Orbital elements

Epoch: 2026-05-25T00:06:34.053120Z

Period
94.27 min
Inclination
43.0044°
Eccentricity
0.0001157
Mean motion
15.27587731 rev/d
Perigee alt
482.2 km
Apogee alt
483.8 km
Semi-major
6,861.2 km
B*
8.8104e-5
RAAN
355.6518°
Arg perigee
274.6799°
Mean anomaly
85.3920°
Rev number
15,493

§ Raw data

STARLINK-302521 57607U 23119F   26145.00456080  .00002164  00000+0  88104-4 0  99992 57607  43.0044 355.6518 0001157 274.6799  85.3920 15.27587731154938

JSON: /api/v1/satellites/57607 · /tle

For live sub-satellite position, see the globe view (requires WebGL).

§ Visibility from observer

Set your observer location to see the next 7 days of passes ≥ 10°. The values pass through the URL so the page stays shareable.

No JS? Fill the form by hand. The geolocation button needs JavaScript.